DW2819 Weather Reports


Display with metric or nautical units.
time (UTC)temp
F
wind
direction
speed
MPH
gust
MPH
rain 1hr
in
rain 24hr
in
rain mn
in
humidity
%
barometer
mb
20260905222301 51 293 0.0 1.0 0.00 0.00 0.00 88 1000.8
20260905221758 51 314 0.0 1.0 0.00 0.00 0.00 88 1000.7
20260905221258 51 314 0.0 1.0 0.00 0.00 0.00 88 1000.7
20260905220802 51 298 0.0 1.0 0.00 0.00 0.00 88 1000.7
20260905220259 51 266 0.0 0.0 0.00 0.00 0.00 88 1000.7
20260905215800 51 266 0.0 0.0 0.00 0.00 0.00 88 1000.6
20260905215259 52 266 0.0 1.0 0.00 0.00 0.00 88 1000.7
20260905214755 52 266 0.0 1.0 0.00 0.00 0.00 88 1000.5
20260905214255 52 336 0.0 0.0 0.00 0.00 0.00 88 1000.5
20260905213756 52 334 0.0 0.0 0.00 0.00 0.00 88 1000.4
20260905213255 52 334 0.0 0.0 0.00 0.00 0.00 88 1000.4
20260905212758 52 333 0.0 1.0 0.00 0.00 0.00 88 1000.4
20260905212259 52 333 0.0 1.0 0.00 0.00 0.00 88 1000.3
20260905211803 52 319 0.0 1.0 0.00 0.00 0.00 88 1000.4
20260905210758 52 347 0.0 0.0 0.00 0.00 0.00 88 1000.2
20260905210259 52 347 0.0 0.0 0.00 0.00 0.00 88 1000.2
20260905205759 52 347 0.0 0.0 0.00 0.00 0.00 88 1000.1
20260905205259 52 347 0.0 0.0 0.00 0.00 0.00 88 1000.2
20260905204759 52 347 0.0 0.0 0.00 0.00 0.00 88 1000.1
20260905204259 52 261 0.0 0.0 0.00 0.00 0.00 88 1000.0
20260905203759 52 261 0.0 0.0 0.00 0.00 0.00 88 999.9
20260905203301 53 0 0.0 0.0 0.00 0.00 0.00 87 999.9
20260905202759 53 1 0.0 0.0 0.00 0.00 0.00 87 999.8
20260905202259 53 1 0.0 1.0 0.00 0.00 0.00 87 999.7
20260905201758 53 1 0.0 1.0 0.00 0.00 0.00 86 999.7
20260905201259 53 358 0.0 0.0 0.00 0.00 0.00 86 999.6
20260905200758 53 358 0.0 0.0 0.00 0.00 0.00 86 999.6
20260905200259 54 358 0.0 0.0 0.00 0.00 0.00 85 999.7
20260905194802 55 334 0.0 0.0 0.00 0.00 0.00 84 999.4
20260905194301 55 334 0.0 0.0 0.00 0.00 0.00 84 999.4
20260905193800 55 334 0.0 0.0 0.00 0.00 0.00 83 999.3
20260905192801 55 334 0.0 0.0 0.00 0.00 0.00 83 999.3
20260905192259 55 334 0.0 0.0 0.00 0.00 0.00 83 999.2
20260905191759 55 0 0.0 2.0 0.00 0.00 0.00 83 999.2
20260905190803 55 344 0.0 1.0 0.00 0.00 0.00 84 999.1
20260905190301 55 0 0.0 1.0 0.00 0.00 0.00 84 999.1
20260905185800 55 269 0.0 1.0 0.00 0.00 0.00 85 999.1
20260905185259 55 4 0.0 0.0 0.00 0.00 0.00 84 999.0
20260905184800 55 4 0.0 0.0 0.00 0.00 0.00 84 999.1
20260905184303 55 4 0.0 3.0 0.00 0.00 0.00 83 998.9
20260905183808 55 4 1.0 3.0 0.00 0.00 0.00 83 998.9
20260905182759 56 289 0.0 1.0 0.00 0.00 0.00 84 998.8
20260905182259 56 289 0.0 1.0 0.00 0.00 0.00 83 998.8
20260905181800 56 11 0.0 0.0 0.00 0.00 0.00 83 998.7
20260905180758 56 13 0.0 0.0 0.00 0.00 0.00 84 998.7
20260905180301 56 354 0.0 0.0 0.00 0.00 0.00 84 998.6
20260905175758 56 354 0.0 0.0 0.00 0.00 0.00 84 998.6
20260905173758 56 354 0.0 0.0 0.00 0.00 0.00 82 998.5
20260905173258 56 354 0.0 0.0 0.00 0.00 0.00 82 998.5
20260905172758 56 354 0.0 0.0 0.00 0.00 0.00 82 998.5
20260905172305 56 354 0.0 0.0 0.00 0.00 0.00 82 998.4
20260905171758 56 354 0.0 0.0 0.00 0.00 0.00 82 998.3
20260905170759 56 354 0.0 0.0 0.00 0.00 0.00 82 998.1
20260905170305 56 354 0.0 0.0 0.00 0.00 0.00 81 998.1
20260905165759 56 354 0.0 0.0 0.00 0.00 0.00 81 998.0
20260905165258 56 354 0.0 0.0 0.00 0.00 0.00 81 998.0
20260905164759 56 354 0.0 0.0 0.00 0.00 0.00 81 997.8
20260905164258 57 354 0.0 0.0 0.00 0.00 0.00 80 997.9
20260905163758 57 354 0.0 0.0 0.00 0.00 0.00 80 997.8
20260905163300 57 354 0.0 0.0 0.00 0.00 0.00 80 997.8
20260905162759 57 354 0.0 0.0 0.00 0.00 0.00 80 997.8
20260905162259 58 354 0.0 0.0 0.00 0.00 0.00 79 997.7
20260905161809 58 354 0.0 0.0 0.00 0.00 0.00 78 997.6
20260905161307 58 354 0.0 0.0 0.00 0.00 0.00 77 997.6
20260905160802 58 354 0.0 0.0 0.00 0.00 0.00 77 997.6
20260905160306 58 354 0.0 0.0 0.00 0.00 0.00 77 997.5
20260905155803 58 354 0.0 0.0 0.00 0.00 0.00 76 997.4
20260905155305 59 354 0.0 0.0 0.00 0.00 0.00 75 997.3
20260905154801 59 354 0.0 0.0 0.00 0.00 0.00 74 997.3
20260905154300 59 354 0.0 0.0 0.00 0.00 0.00 72 997.3
20260905153802 60 354 0.0 0.0 0.00 0.00 0.00 71 997.3
20260905153300 60 354 0.0 0.0 0.00 0.00 0.00 70 997.1
20260905152800 61 354 0.0 0.0 0.00 0.00 0.00 68 997.1
20260905152258 62 354 0.0 1.0 0.00 0.00 0.00 66 997.2
20260905151758 62 354 0.0 1.0 0.00 0.00 0.00 65 997.2
20260905151300 62 0 0.0 1.0 0.00 0.00 0.00 64 997.2
20260905150800 62 3 0.0 2.0 0.00 0.00 0.00 63 997.1
20260905150302 63 265 0.0 2.0 0.00 0.00 0.00 62 997.1
20260905145800 63 279 0.0 2.0 0.00 0.00 0.00 62 997.0
20260905144300 63 341 0.0 2.0 0.00 0.00 0.00 65 996.8
20260905143800 63 334 0.0 3.0 0.00 0.00 0.00 64 996.7
20260905143258 63 275 1.0 3.0 0.00 0.00 0.00 61 996.7
20260905142801 63 254 0.0 3.0 0.00 0.00 0.00 60 996.7
20260905141756 63 355 0.0 2.0 0.00 0.00 0.00 60 996.6
20260905140756 63 7 0.0 2.0 0.00 0.00 0.00 57 996.5
20260905140254 63 261 0.0 2.0 0.00 0.00 0.00 58 996.5
20260905135755 63 285 1.0 3.0 0.00 0.00 0.00 54 996.5
20260905135254 64 269 1.0 3.0 0.00 0.00 0.00 58 996.4
20260905134258 64 0 0.0 3.0 0.00 0.00 0.00 59 996.3
20260905133755 63 298 2.0 4.0 0.00 0.00 0.00 60 996.3
20260905132756 63 1 0.0 3.0 0.00 0.00 0.00 60 996.2
20260905132254 63 0 0.0 3.0 0.00 0.00 0.00 55 996.2
20260905131756 63 350 1.0 3.0 0.00 0.00 0.00 55 996.2
20260905131256 62 0 0.0 3.0 0.00 0.00 0.00 59 996.3
20260905130755 62 313 0.0 2.0 0.00 0.00 0.00 59 996.2
20260905130257 63 272 1.0 3.0 0.00 0.00 0.00 60 996.2
20260905125757 63 350 1.0 3.0 0.00 0.00 0.00 59 996.1
20260905125256 63 336 1.0 2.0 0.00 0.00 0.00 59 996.1
20260905124758 63 0 0.0 3.0 0.00 0.00 0.00 61 996.1
20260905124256 63 303 0.0 5.0 0.00 0.00 0.00 60 996.0
20260905123758 62 292 1.0 5.0 0.00 0.00 0.00 61 995.9
20260905123300 62 200 0.0 3.0 0.00 0.00 0.00 59 995.9
20260905121758 62 251 0.0 3.0 0.00 0.00 0.00 66 995.8
20260905121258 61 278 0.0 3.0 0.00 0.00 0.00 65 995.9
20260905120800 61 316 0.0 4.0 0.00 0.00 0.00 69 995.9
20260905115800 60 354 0.0 2.0 0.00 0.00 0.00 68 995.9
20260905115320 60 316 0.0 2.0 0.00 0.00 0.00 68 995.8
20260905114316 60 76 0.0 0.0 0.00 0.00 0.00 74 995.8
20260905112815 62 76 0.0 0.0 0.00 0.00 0.00 70 995.7
20260905111754 62 71 0.0 1.0 0.00 0.00 0.00 67 995.8
20260905111255 62 71 0.0 1.0 0.00 0.00 0.00 66 995.7
20260905110756 63 72 0.0 2.0 0.00 0.00 0.00 64 995.6
20260905110259 63 37 1.0 5.0 0.00 0.00 0.00 64 995.7
20260905105825 63 35 2.0 5.0 0.00 0.00 0.00 63 995.5
20260905104759 62 16 1.0 2.0 0.00 0.00 0.00 64 995.5
20260905104310 62 251 0.0 1.0 0.00 0.00 0.00 65 995.4
20260905102759 63 257 0.0 4.0 0.00 0.00 0.00 65 995.3
20260905102307 62 319 0.0 3.0 0.00 0.00 0.00 66 995.2
20260905101302 63 326 1.0 1.0 0.00 0.00 0.00 66 995.2
20260905100800 63 340 0.0 1.0 0.00 0.00 0.00 66 995.2
20260905100300 63 344 0.0 1.0 0.00 0.00 0.00 66 995.2
20260905095757 63 331 0.0 1.0 0.00 0.00 0.00 68 995.1
20260905095259 63 305 0.0 1.0 0.00 0.00 0.00 66 995.1
20260905094258 63 41 0.0 3.0 0.00 0.00 0.00 68 995.1
20260905093758 63 0 0.0 2.0 0.00 0.00 0.00 69 995.0
20260905093258 62 313 0.0 1.0 0.00 0.00 0.00 70 995.0
20260905092758 62 330 0.0 1.0 0.00 0.00 0.00 73 995.1
20260905092306 61 220 0.0 1.0 0.00 0.00 0.00 75 995.0
20260905091258 61 0 0.0 2.0 0.00 0.00 0.00 75 995.0
20260905090758 61 24 0.0 1.0 0.00 0.00 0.00 75 994.9
20260905090258 60 310 0.0 1.0 0.00 0.00 0.00 75 994.9
20260905085758 59 310 0.0 1.0 0.00 0.00 0.00 79 994.9
20260905085257 58 309 0.0 0.0 0.00 0.00 0.00 79 994.9
20260905084754 58 309 0.0 1.0 0.00 0.00 0.00 80 994.8
20260905084255 58 307 0.0 1.0 0.00 0.00 0.00 80 994.9
20260905083759 57 313 0.0 0.0 0.00 0.00 0.00 83 994.8
20260905083255 57 313 0.0 1.0 0.00 0.00 0.00 83 994.8
20260905082758 57 313 0.0 1.0 0.00 0.00 0.00 81 994.8
20260905082301 58 28 0.0 1.0 0.00 0.00 0.00 81 994.8
20260905081758 58 299 0.0 1.0 0.00 0.00 0.00 80 994.7
20260905081259 58 299 0.0 1.0 0.00 0.00 0.00 81 994.6
20260905080758 58 309 0.0 1.0 0.00 0.00 0.00 82 994.7
20260905075758 56 340 0.0 0.0 0.00 0.00 0.00 83 994.8
20260905075258 56 340 0.0 0.0 0.00 0.00 0.00 83 994.7
20260905074758 56 336 0.0 1.0 0.00 0.00 0.00 83 994.7
20260905074258 56 340 0.0 1.0 0.00 0.00 0.00 82 994.7
20260905073757 56 340 0.0 1.0 0.00 0.00 0.00 83 994.6
20260905073257 54 0 0.0 1.0 0.00 0.00 0.00 85 994.6
20260905072758 53 0 0.0 1.0 0.00 0.00 0.00 88 994.6
20260905072305 53 0 0.0 0.0 0.00 0.00 0.00 88 994.6
20260905071758 53 0 0.0 0.0 0.00 0.00 0.00 88 994.6
20260905071301 53 0 0.0 0.0 0.00 0.00 0.00 87 994.6
20260905070757 53 1 0.0 0.0 0.00 0.00 0.00 87 994.5
20260905070304 54 1 0.0 0.0 0.00 0.00 0.00 87 994.4
20260905065759 54 1 0.0 0.0 0.00 0.00 0.00 87 994.4
20260905065300 54 1 0.0 0.0 0.00 0.00 0.00 86 994.3
20260905064759 54 8 0.0 0.0 0.00 0.00 0.00 86 994.4
20260905064323 55 8 0.0 0.0 0.00 0.00 0.00 86 994.3
20260905063258 55 8 0.0 0.0 0.00 0.00 0.00 85 994.2
20260905062757 54 8 0.0 0.0 0.00 0.00 0.00 87 994.2
20260905062259 53 11 0.0 1.0 0.00 0.00 0.00 87 994.1
20260905061801 54 7 0.0 1.0 0.00 0.00 0.00 86 994.1
20260905060800 53 34 0.0 1.0 0.00 0.00 0.00 87 994.0
20260905060257 52 79 0.0 0.0 0.00 0.00 0.00 88 994.1
20260905055800 52 79 0.0 0.0 0.00 0.00 0.00 88 994.1
20260905055259 51 79 0.0 0.0 0.00 0.00 0.00 88 994.1
20260905054800 51 79 0.0 0.0 0.00 0.00 0.00 89 994.1
20260905054233 50 79 0.0 0.0 0.00 0.00 0.00 91 994.1
20260905053731 49 79 0.0 0.0 0.00 0.00 0.00 92 994.0
20260905053229 49 79 0.0 0.0 0.00 0.00 0.00 93 994.1
20260905052817 47 79 0.0 0.0 0.00 0.00 0.00 94 994.1
20260905051730 46 79 0.0 0.0 0.00 0.00 0.00 94 994.1
20260905051229 46 79 0.0 0.0 0.00 0.00 0.00 93 994.0
20260905050742 46 79 0.0 0.0 0.00 0.00 0.00 93 994.1
20260905045715 45 79 0.0 0.0 0.00 0.00 0.00 92 994.1
20260905045215 44 79 0.0 0.0 0.00 0.00 0.00 92 994.0
20260905044715 44 79 0.0 0.0 0.00 0.00 0.00 92 994.0
20260905044216 44 79 0.0 0.0 0.00 0.00 0.00 92 994.0
20260905043717 44 79 0.0 0.0 0.00 0.00 0.00 92 994.1
20260905043211 44 79 0.0 0.0 0.00 0.00 0.00 92 994.0
20260905042709 44 79 0.0 0.0 0.00 0.00 0.00 91 994.2
20260905042206 44 79 0.0 0.0 0.00 0.00 0.00 91 994.2
20260905041717 44 79 0.0 0.0 0.00 0.00 0.00 91 994.1
20260905040707 44 79 0.0 0.0 0.00 0.00 0.00 92 994.2
20260905040209 44 79 0.0 0.0 0.00 0.00 0.00 91 994.1
20260905035723 44 79 0.0 0.0 0.00 0.00 0.00 91 994.0
20260905034201 44 79 0.0 0.0 0.00 0.00 0.00 91 994.2
20260905033707 44 79 0.0 0.0 0.00 0.00 0.00 91 994.1
20260905033202 44 79 0.0 0.0 0.00 0.00 0.00 91 994.1
20260905032704 44 79 0.0 0.0 0.00 0.00 0.00 91 994.1
20260905032156 44 79 0.0 0.0 0.00 0.00 0.00 91 994.1
20260905031655 44 79 0.0 0.0 0.00 0.00 0.00 91 994.1
20260905031156 45 79 0.0 0.0 0.00 0.00 0.00 91 994.2
20260905030655 45 79 0.0 0.0 0.00 0.00 0.00 92 994.2
20260905030155 45 79 0.0 0.0 0.00 0.00 0.00 91 994.1
20260905025657 45 79 0.0 0.0 0.00 0.00 0.00 91 994.2
20260905025156 45 79 0.0 0.0 0.00 0.00 0.00 92 994.2
20260905024701 45 79 0.0 0.0 0.00 0.00 0.00 92 994.2
20260905024158 45 79 0.0 0.0 0.00 0.00 0.00 92 994.2
20260905023700 45 79 0.0 0.0 0.00 0.00 0.00 92 994.2
20260905023158 45 79 0.0 0.0 0.00 0.00 0.00 92 994.3
20260905022658 45 79 0.0 0.0 0.00 0.00 0.00 92 994.2
20260905022158 45 79 0.0 0.0 0.00 0.00 0.00 92 994.2
20260905021659 45 79 0.0 0.0 0.00 0.00 0.00 92 994.2
20260905021157 45 79 0.0 0.0 0.00 0.00 0.00 92 994.1
20260905020659 45 79 0.0 0.0 0.00 0.00 0.00 92 994.1
20260905020157 45 79 0.0 0.0 0.00 0.00 0.00 92 994.2
20260905015657 45 79 0.0 0.0 0.00 0.00 0.00 91 994.2
20260905015159 45 79 0.0 0.0 0.00 0.00 0.00 91 994.2
20260905014705 45 79 0.0 0.0 0.00 0.00 0.00 91 994.2
20260905013658 45 79 0.0 0.0 0.00 0.00 0.00 91 994.2
20260905013200 45 79 0.0 0.0 0.00 0.00 0.00 90 994.2
20260905012158 45 79 0.0 0.0 0.00 0.00 0.00 90 994.2
20260905011657 45 79 0.0 0.0 0.00 0.00 0.00 91 994.2
20260905011159 45 79 0.0 0.0 0.00 0.00 0.00 90 994.2
20260905010659 45 79 0.0 0.0 0.00 0.00 0.00 90 994.2
20260905010202 45 79 0.0 0.0 0.00 0.00 0.00 90 994.2
20260905005706 45 79 0.0 0.0 0.00 0.00 0.00 90 994.1
20260905005202 45 79 0.0 0.0 0.00 0.00 0.00 90 994.1
20260905004158 46 79 0.0 0.0 0.00 0.00 0.00 90 994.1
20260905003659 46 79 0.0 0.0 0.00 0.00 0.00 90 994.2
20260905003157 46 79 0.0 0.0 0.00 0.00 0.00 90 994.1
20260905002658 46 79 0.0 0.0 0.00 0.00 0.00 90 994.2
20260905002200 46 79 0.0 0.0 0.00 0.00 0.00 90 994.2
20260905001702 46 79 0.0 0.0 0.00 0.00 0.00 90 994.2
20260905000657 46 79 0.0 0.0 0.00 0.00 0.00 90 994.2
20260905000200 46 79 0.0 0.0 0.00 0.00 0.00 90 994.3
20260904235657 46 79 0.0 0.0 0.00 0.00 0.00 90 994.2
20260904235158 46 79 0.0 0.0 0.00 0.00 0.00 90 994.2
20260904234659 47 79 0.0 0.0 0.00 0.00 0.00 90 994.4
20260904234158 47 79 0.0 0.0 0.00 0.00 0.00 90 994.4
20260904233642 47 79 0.0 0.0 0.00 0.00 0.00 90 994.4
20260904232632 47 79 0.0 0.0 0.00 0.00 0.00 90 994.6
20260904232129 47 79 0.0 0.0 0.00 0.00 0.00 90 994.7
20260904231626 47 79 0.0 0.0 0.00 0.00 0.00 90 994.7
20260904231128 47 79 0.0 0.0 0.00 0.00 0.00 90 994.7
20260904230744 47 79 0.0 0.0 0.00 0.00 0.00 89 994.7
20260904224120 48 79 0.0 0.0 0.00 0.00 0.00 90 994.8
20260904223615 48 79 0.0 0.0 0.00 0.00 0.00 90 995.0
20260904223115 49 79 0.0 0.0 0.00 0.00 0.00 90 995.0